sat.trackr.live / text

‹ back to catalog

BSAT-3B

NORAD 37207 · 2010-056B

PAYLOAD ACTIVE UNKNOWN

§ Identity

Operator
Country
JPN
Launch date
2010-10-28
Launch site
FRGUI
Launch vehicle
Mass (kg)
RCS (m²)
10.00

Purposes: comms

External: N2YO · Heavens-Above · Gunter

§ Orbital elements

Epoch: 2026-09-15T22:49:38.049312Z

Period
1,436.11 min
Inclination
0.0567°
Eccentricity
0.0004152
Mean motion
1.00271124 rev/d
Perigee alt
35,769.3 km
Apogee alt
35,804.3 km
Semi-major
42,164.9 km
B*
0.0000e+0
RAAN
248.2689°
Arg perigee
316.8829°
Mean anomaly
242.0142°
Rev number
5,300

§ Raw data

BSAT-3B1 37207U 10056B   26258.95113483 -.00000356  00000+0  00000+0 0  99912 37207   0.0567 248.2689 0004152 316.8829 242.0142  1.00271124 53008

JSON: /api/v1/satellites/37207 · /tle

For live sub-satellite position, see the globe view (requires WebGL).

§ Visibility from observer

Set your observer location to see the next 7 days of passes ≥ 10°. The values pass through the URL so the page stays shareable.

No JS? Fill the form by hand. The geolocation button needs JavaScript.